SLAYR23 KNGU-KNGU

Flight info

Callsign SLAYR23
Flight time 0h 9m
Altitude 9000
Route VFR
Aircraft H60/L-VD/C

Departure

Time 2026-05-05 03:45
Airport Norfolk Naval Station (Chambers Field) (KNGU)

Arrival

Time 2026-05-05 03:54
Airport Norfolk Naval Station (Chambers Field) (KNGU)
Time Latitude Longitude Altitude Speed Heading
2026-05-05 03:21 36.94000 -76.29410 22 ft 10 kts 218°
2026-05-05 03:21 36.93934 -76.29415 22 ft 10 kts 169°
2026-05-05 03:21 36.93919 -76.29335 76 ft 20 kts 91°
2026-05-05 03:21 36.93923 -76.29164 66 ft 19 kts 91°
2026-05-05 03:22 36.93918 -76.29009 93 ft 16 kts 91°
2026-05-05 03:22 36.93908 -76.28588 222 ft 104 kts 101°
2026-05-05 03:22 36.93896 -76.27704 213 ft 100 kts 101°
2026-05-05 03:22 36.93855 -76.26862 230 ft 95 kts 101°
2026-05-05 03:23 36.93831 -76.26042 231 ft 95 kts 101°
2026-05-05 03:23 36.93801 -76.25227 206 ft 94 kts 101°
2026-05-05 03:23 36.93814 -76.24417 214 ft 95 kts 102°
2026-05-05 03:23 36.93837 -76.23603 219 ft 94 kts 101°
2026-05-05 03:24 36.94121 -76.23019 218 ft 80 kts 39°
2026-05-05 03:24 36.94610 -76.22600 222 ft 88 kts 39°
2026-05-05 03:24 36.95142 -76.22154 224 ft 95 kts 39°
2026-05-05 03:24 36.95700 -76.21666 227 ft 101 kts 39°
2026-05-05 03:25 36.96298 -76.21176 230 ft 104 kts 39°
2026-05-05 03:25 36.96903 -76.20666 231 ft 105 kts 39°
2026-05-05 03:25 36.97501 -76.20144 230 ft 106 kts 39°
2026-05-05 03:25 36.98118 -76.19636 228 ft 107 kts 39°
2026-05-05 03:26 36.98725 -76.19090 230 ft 107 kts 39°
2026-05-05 03:26 36.99333 -76.18541 228 ft 108 kts 39°
2026-05-05 03:26 36.99947 -76.17999 230 ft 109 kts 39°
2026-05-05 03:26 37.00570 -76.17452 233 ft 110 kts 39°
2026-05-05 03:27 37.01197 -76.16897 228 ft 111 kts 39°
2026-05-05 03:27 37.01830 -76.16345 229 ft 111 kts 39°
2026-05-05 03:27 37.02456 -76.15800 231 ft 109 kts 39°
2026-05-05 03:27 37.03085 -76.15264 231 ft 110 kts 39°
2026-05-05 03:28 37.03724 -76.14727 235 ft 111 kts 39°
2026-05-05 03:28 37.04359 -76.14181 228 ft 110 kts 39°
2026-05-05 03:28 37.04990 -76.13641 229 ft 110 kts 39°
2026-05-05 03:28 37.05620 -76.13101 230 ft 110 kts 39°
2026-05-05 03:29 37.06257 -76.12560 230 ft 111 kts 39°
2026-05-05 03:29 37.06890 -76.12019 231 ft 111 kts 39°
2026-05-05 03:29 37.07529 -76.11474 231 ft 110 kts 39°
2026-05-05 03:29 37.08166 -76.10939 234 ft 110 kts 39°
2026-05-05 03:30 37.08805 -76.10416 221 ft 110 kts 39°
2026-05-05 03:30 37.09442 -76.09893 220 ft 110 kts 39°
2026-05-05 03:30 37.10075 -76.09373 218 ft 108 kts 39°
2026-05-05 03:30 37.10707 -76.08862 219 ft 108 kts 39°
2026-05-05 03:31 37.11344 -76.08364 219 ft 109 kts 39°
2026-05-05 03:31 37.11984 -76.07854 218 ft 108 kts 39°
2026-05-05 03:31 37.12618 -76.07347 218 ft 108 kts 39°
2026-05-05 03:31 37.13240 -76.06823 222 ft 108 kts 39°
2026-05-05 03:32 37.13861 -76.06308 227 ft 107 kts 39°
2026-05-05 03:32 37.14483 -76.05791 227 ft 108 kts 39°
2026-05-05 03:32 37.15110 -76.05267 226 ft 108 kts 39°
2026-05-05 03:32 37.15724 -76.04718 217 ft 108 kts 44°
2026-05-05 03:33 37.15691 -76.03890 211 ft 96 kts 146°
2026-05-05 03:33 37.15144 -76.03924 244 ft 77 kts 199°
2026-05-05 03:33 37.14646 -76.04121 232 ft 73 kts 199°
2026-05-05 03:33 37.14339 -76.04562 211 ft 95 kts 270°
2026-05-05 03:34 37.14968 -76.05071 247 ft 115 kts 329°
2026-05-05 03:34 37.15278 -76.05667 217 ft 68 kts 250°
2026-05-05 03:34 37.14901 -76.05981 229 ft 65 kts 216°
2026-05-05 03:34 37.14555 -76.06351 232 ft 66 kts 218°
2026-05-05 03:35 37.14227 -76.06755 225 ft 67 kts 218°
2026-05-05 03:35 37.13969 -76.07282 178 ft 99 kts 262°
2026-05-05 03:35 37.14309 -76.08212 206 ft 125 kts 290°
2026-05-05 03:35 37.14623 -76.09174 237 ft 94 kts 250°
2026-05-05 03:36 37.14360 -76.09730 232 ft 72 kts 228°
2026-05-05 03:36 37.14080 -76.10257 227 ft 73 kts 228°
2026-05-05 03:36 37.13792 -76.10790 223 ft 74 kts 228°
2026-05-05 03:36 37.13506 -76.11327 221 ft 75 kts 228°
2026-05-05 03:37 37.13224 -76.11884 219 ft 76 kts 228°
2026-05-05 03:37 37.12944 -76.12448 218 ft 77 kts 228°
2026-05-05 03:37 37.12672 -76.13023 217 ft 77 kts 228°
2026-05-05 03:37 37.12397 -76.13590 217 ft 75 kts 228°
2026-05-05 03:38 37.12135 -76.14158 216 ft 75 kts 228°
2026-05-05 03:38 37.11885 -76.14734 216 ft 75 kts 228°
2026-05-05 03:38 37.11650 -76.15321 216 ft 76 kts 228°
2026-05-05 03:38 37.11416 -76.15912 217 ft 75 kts 228°
2026-05-05 03:39 37.11172 -76.16499 217 ft 76 kts 228°
2026-05-05 03:39 37.10907 -76.17076 216 ft 77 kts 228°
2026-05-05 03:39 37.10631 -76.17645 215 ft 76 kts 228°
2026-05-05 03:39 37.10353 -76.18198 214 ft 76 kts 228°
2026-05-05 03:40 37.10062 -76.18751 214 ft 76 kts 228°
2026-05-05 03:40 37.09775 -76.19303 214 ft 76 kts 228°
2026-05-05 03:40 37.09502 -76.19868 214 ft 76 kts 228°
2026-05-05 03:40 37.09232 -76.20438 213 ft 76 kts 228°
2026-05-05 03:41 37.08975 -76.21008 214 ft 75 kts 228°
2026-05-05 03:41 37.08709 -76.21578 213 ft 76 kts 228°
2026-05-05 03:41 37.08446 -76.22153 212 ft 76 kts 228°
2026-05-05 03:41 37.08191 -76.22734 212 ft 76 kts 228°
2026-05-05 03:42 37.07929 -76.23306 213 ft 75 kts 228°
2026-05-05 03:42 37.07672 -76.23879 213 ft 76 kts 228°
2026-05-05 03:42 37.07422 -76.24458 211 ft 76 kts 228°
2026-05-05 03:42 37.07185 -76.25052 217 ft 77 kts 228°
2026-05-05 03:43 37.06941 -76.25640 209 ft 76 kts 228°
2026-05-05 03:43 37.06692 -76.26220 213 ft 75 kts 228°
2026-05-05 03:43 37.06444 -76.26798 213 ft 75 kts 228°
2026-05-05 03:43 37.06193 -76.27376 210 ft 76 kts 228°
2026-05-05 03:44 37.05935 -76.27949 210 ft 76 kts 228°
2026-05-05 03:44 37.05666 -76.28516 215 ft 76 kts 228°
2026-05-05 03:44 37.05377 -76.29067 214 ft 76 kts 228°
2026-05-05 03:44 37.05078 -76.29615 267 ft 80 kts 229°
2026-05-05 03:45 37.04750 -76.30207 981 ft 78 kts 231°
2026-05-05 03:45 37.04551 -76.30562 928 ft 81 kts 232°
2026-05-05 03:45 37.04205 -76.31137 960 ft 85 kts 231°
2026-05-05 03:45 37.03712 -76.31932 901 ft 97 kts 236°
2026-05-05 03:46 37.02997 -76.32475 357 ft 145 kts 170°
2026-05-05 03:46 37.02123 -76.32089 605 ft 125 kts 161°
2026-05-05 03:46 37.01392 -76.31568 485 ft 117 kts 165°
2026-05-05 03:46 37.00948 -76.31853 395 ft 126 kts 239°
2026-05-05 03:47 37.01206 -76.32874 410 ft 125 kts 307°
2026-05-05 03:47 37.01752 -76.33606 384 ft 105 kts 304°
2026-05-05 03:47 37.02273 -76.34054 695 ft 101 kts
2026-05-05 03:47 37.02793 -76.33555 622 ft 88 kts 85°
2026-05-05 03:48 37.02559 -76.32874 413 ft 100 kts 144°
2026-05-05 03:48 37.02101 -76.32298 440 ft 93 kts 143°
2026-05-05 03:48 37.01684 -76.31713 445 ft 89 kts 143°
2026-05-05 03:48 37.01293 -76.31101 467 ft 92 kts 143°
2026-05-05 03:49 37.00897 -76.30453 468 ft 97 kts 142°
2026-05-05 03:49 37.00469 -76.29968 431 ft 77 kts 164°
2026-05-05 03:49 36.99835 -76.30217 480 ft 97 kts 205°
2026-05-05 03:49 36.99264 -76.30505 471 ft 82 kts 205°
2026-05-05 03:50 36.98729 -76.30814 478 ft 96 kts 210°
2026-05-05 03:50 36.98060 -76.31239 492 ft 123 kts 208°
2026-05-05 03:50 36.97505 -76.31771 1019 ft 90 kts 244°
2026-05-05 03:50 36.97410 -76.32648 300 ft 109 kts 265°
2026-05-05 03:51 36.97489 -76.33577 439 ft 117 kts 275°
2026-05-05 03:51 36.97546 -76.34821 233 ft 148 kts 256°
2026-05-05 03:51 36.96976 -76.35666 435 ft 127 kts 210°
2026-05-05 03:51 36.96147 -76.35786 902 ft 109 kts 190°
2026-05-05 03:52 36.95468 -76.35786 1355 ft 90 kts 190°
2026-05-05 03:52 36.94865 -76.35720 1615 ft 85 kts 190°
2026-05-05 03:52 36.94292 -76.35631 1807 ft 83 kts 190°
2026-05-05 03:52 36.93722 -76.35515 1994 ft 85 kts 149°
2026-05-05 03:53 36.93464 -76.34794 1394 ft 110 kts 97°
2026-05-05 03:53 36.93626 -76.33695 402 ft 150 kts 90°
2026-05-05 03:53 36.93736 -76.32444 386 ft 133 kts 90°
2026-05-05 03:53 36.93768 -76.31443 303 ft 91 kts 91°
2026-05-05 03:54 36.93825 -76.30812 237 ft 68 kts 91°
2026-05-05 03:54 36.93854 -76.30352 156 ft 40 kts 89°
2026-05-05 03:54 36.93865 -76.30047 115 ft 27 kts 86°
2026-05-05 03:54 36.93874 -76.29878 26 ft 13 kts 88°
2026-05-05 03:55 36.93877 -76.29800 21 ft 7 kts 82°
2026-05-05 03:55 36.93881 -76.29774 19 ft 0 kts 80°
2026-05-05 03:55 36.93887 -76.29720 33 ft 36 kts 89°
2026-05-05 03:56 36.93890 -76.29430 39 ft 4 kts 27°
2026-05-05 03:56 36.93917 -76.29414 22 ft 0 kts
2026-05-05 03:56 36.94034 -76.29409 91 ft 40 kts
2026-05-05 03:56 36.94137 -76.29291 58 ft 20 kts 172°
2026-05-05 03:57 36.94083 -76.29291 23 ft 0 kts 178°